Weather History for Boise, ID

Change the Weather History Date:

Saturday, February 2, 2013

  Actual Average Record
Temperature  
Mean Temperature 33 °F 34 °F  
Max Temperature 43 °F 41 °F 59 °F (1881)
Min Temperature 23 °F 27 °F -12 °F (1979)
Degree Days  
Heating Degree Days 32 31  
Month to date heating degree days 62 63  
Since 1 July heating degree days 3339 3424  
Cooling Degree Days 0 0  
Month to date cooling degree days 0 0  
Year to date cooling degree days 0 0  
Moisture  
Dew Point 28 °F    
Average Humidity 85    
Maximum Humidity 100    
Minimum Humidity 70    
Precipitation  
Precipitation 0.00 in 0.04 in 1.22 in (1916)
Month to date precipitation 0.00 0.07  
Year to date precipitation 1.21 1.31  
Snow  
Snow 0.00 in 0.20 in 15.50 in (1916)
Month to date snowfall 0.0 0.3  
Since 1 July snowfall 11.8 15.1  
Snow Depth 0.00 in    
Sea Level Pressure  
Sea Level Pressure 30.47 in    
Wind  
Wind Speed 4 mph (South)    
Max Wind Speed 15 mph    
Max Gust Speed 20 mph    
Visibility 4 miles    
Events Fog    
T = Trace of Precipitation, MM = Missing Value Source: NWS Daily Summary

Daily Weather History Graph

Daily Weather History Graph

Search for Another Location

Airport:

Trip Planner

Search our weather history database for the weather conditions in past years. The results will help you decide how hot, cold, wet, or windy it might be!

Date:

Astronomy

Feb. 02, 2013 Rise Set
Actual Time 7:59 AM MST 5:58 PM MST
Civil Twilight 7:29 AM MST 6:28 PM MST
Nautical Twilight 6:55 AM MST 7:02 PM MST
Astronomical Twilight 6:21 AM MST 7:36 PM MST
Moon 12:22 AM MST (2/2) 10:58 AM MST (2/2)
Length of Visible Light 10h 59m
Length of Day
9h 58m
Waning Gibbous, 59% of the Moon is Illuminated
Feb 2
Waning Gibbous
Feb 3
Last Quarter
Feb 10
New
Feb 17
First Quarter
Feb 25
Full

Hourly Weather History & Observations

Time (MST) Temp. Windchill Dew Point Humidity Pressure Visibility Wind Dir Wind Speed Gust Speed Precip Events Conditions
12:37 AM 30.2 °F 26.7 °F 30.2 °F 100% 30.43 in 0.2 mi SW 3.5 mph - N/A Fog Light Freezing Fog
12:53 AM 30.9 °F - 30.9 °F 100% 30.48 in 0.2 mi Calm Calm - N/A Fog Light Freezing Fog
1:53 AM 30.2 °F - 30.2 °F 100% 30.43 in 0.2 mi Calm Calm - N/A Fog Light Freezing Fog
2:02 AM 28.4 °F 22.2 °F 28.4 °F 100% 30.43 in 2.0 mi SSE 5.8 mph - N/A   Mostly Cloudy
2:13 AM 28.4 °F 22.2 °F 26.6 °F 93% 30.43 in 2.0 mi ESE 5.8 mph - N/A   Scattered Clouds
2:33 AM 28.4 °F 22.2 °F 26.6 °F 93% 30.43 in 10.0 mi SE 5.8 mph - N/A   Clear
2:53 AM 27.0 °F - 26.1 °F 96% 30.50 in 10.0 mi Calm Calm - N/A   Clear
3:16 AM 26.6 °F - 26.6 °F 100% 30.45 in 1.5 mi Calm Calm - N/A   Partly Cloudy
3:18 AM 26.6 °F - 26.6 °F 100% 30.45 in 0.8 mi Calm Calm - N/A   Mist
3:25 AM 26.6 °F - 24.8 °F 93% 30.45 in 6.0 mi Calm Calm - N/A   Clear
3:53 AM 25.0 °F 20.7 °F 24.1 °F 96% 30.51 in 6.0 mi WNW 3.5 mph - N/A   Clear
4:00 AM 24.8 °F 19.1 °F 24.8 °F 100% 30.45 in 0.2 mi NW 4.6 mph - N/A Fog Light Freezing Fog
4:53 AM 24.8 °F 20.5 °F 24.8 °F 100% 30.46 in 0.2 mi North 3.5 mph - N/A Fog Light Freezing Fog
5:53 AM 24.1 °F 19.7 °F 23.0 °F 96% 30.52 in 0.2 mi ESE 3.5 mph - N/A Fog Light Freezing Fog
6:00 AM 24.8 °F - 23.0 °F 93% 30.45 in 1.0 mi Calm Calm - N/A   Mist
6:15 AM 24.8 °F - 23.0 °F 93% 30.45 in 1.5 mi Calm Calm - N/A   Partly Cloudy
6:21 AM 24.8 °F - 21.2 °F 86% 30.45 in 3.0 mi Calm Calm - N/A   Partly Cloudy
6:53 AM 24.1 °F - 23.0 °F 96% 30.52 in 4.0 mi Calm Calm - N/A   Clear
7:53 AM 26.1 °F 21.9 °F 23.0 °F 88% 30.54 in 10.0 mi ESE 3.5 mph - N/A   Clear
8:06 AM 26.6 °F 20.0 °F 24.8 °F 93% 30.47 in 6.0 mi SE 5.8 mph - N/A   Scattered Clouds
8:12 AM 28.4 °F 21.2 °F 26.6 °F 93% 30.47 in 2.5 mi SE 6.9 mph - N/A   Mostly Cloudy
8:24 AM 28.4 °F 19.7 °F 28.4 °F 100% 30.47 in 4.0 mi ESE 9.2 mph - N/A   Scattered Clouds
8:53 AM 30.0 °F 21.7 °F 28.9 °F 96% 30.55 in 4.0 mi SE 9.2 mph - N/A   Clear
9:53 AM 32.0 °F 24.2 °F 30.9 °F 96% 30.56 in 8.0 mi SE 9.2 mph - N/A   Clear
10:53 AM 36.0 °F 27.1 °F 30.9 °F 82% 30.56 in 10.0 mi SSE 13.8 mph - N/A   Partly Cloudy
11:53 AM 37.9 °F 31.5 °F 30.9 °F 76% 30.55 in 10.0 mi SSE 9.2 mph - N/A   Clear
12:53 PM 39.0 °F 32.3 °F 33.1 °F 79% 30.53 in 10.0 mi South 10.4 mph - N/A   Clear
1:53 PM 41.0 °F 36.4 °F 34.0 °F 76% 30.49 in 10.0 mi South 6.9 mph - N/A   Partly Cloudy
2:33 PM 42.8 °F 39.3 °F 35.6 °F 76% 30.43 in 10.0 mi South 5.8 mph - N/A   Mostly Cloudy
2:40 PM 42.8 °F 38.6 °F 33.8 °F 70% 30.42 in 10.0 mi South 6.9 mph - N/A   Scattered Clouds
2:53 PM 43.0 °F 40.3 °F 34.0 °F 71% 30.48 in 10.0 mi South 4.6 mph - N/A   Partly Cloudy
3:53 PM 39.9 °F 35.8 °F 34.0 °F 79% 30.48 in 8.0 mi NW 5.8 mph - N/A   Clear
4:53 PM 39.0 °F 34.0 °F 33.1 °F 79% 30.47 in 7.0 mi WNW 6.9 mph - N/A   Clear
5:53 PM 34.0 °F 28.0 °F 32.0 °F 92% 30.48 in 3.0 mi WSW 6.9 mph - N/A   Clear
5:55 PM 33.8 °F 27.0 °F 32.0 °F 93% 30.40 in 1.0 mi WSW 8.1 mph - N/A   Mist
5:58 PM 32.0 °F 26.4 °F 32.0 °F 100% 30.41 in 0.5 mi West 5.8 mph - N/A Fog Fog
6:05 PM 32.0 °F 26.4 °F 32.0 °F 100% 30.41 in 0.2 mi West 5.8 mph - N/A Fog Fog
6:53 PM 30.0 °F 25.2 °F 30.0 °F 100% 30.50 in 0.2 mi WNW 4.6 mph - N/A Fog Light Freezing Fog
7:53 PM 30.0 °F - 28.9 °F 96% 30.49 in 0.2 mi Calm Calm - N/A Fog Light Freezing Fog
8:53 PM 28.9 °F 25.2 °F 28.9 °F 100% 30.47 in 0.2 mi South 3.5 mph - N/A Fog Light Freezing Fog
9:53 PM 28.9 °F - 28.0 °F 96% 30.45 in 0.2 mi Calm Calm - N/A Fog Light Freezing Fog
10:53 PM 28.9 °F - 28.0 °F 96% 30.43 in 0.2 mi Calm Calm - N/A Fog Light Freezing Fog
11:40 PM 26.6 °F - 26.6 °F 100% 30.37 in 0.2 mi Calm Calm - N/A Fog Light Freezing Fog
11:53 PM 27.0 °F - 27.0 °F 100% 30.42 in 0.2 mi Calm Calm - N/A Fog Light Freezing Fog